Location: *
(53.9002°N, 27.5624°E)
Time: 18:24:27
(UTC+00:00)

Cosmos 1697 Rocket - Pass Details

Date: 12 November 2019
Orbit: 833 x 842 km, 71.0° (Epoch: 10 December)

Event Time Altitude Azimuth Distance (km) Brightness Sun altitude
Rises 16:39:10 0° 179° (S) 3,387 5.9 -20.9°
Reaches altitude 10° 16:41:47 10° 171° (S) 2,456 5.0 -21.3°
Enters shadow 16:45:01 28° 143° (SE) 1,539 3.7 -21.7°
